Theta_e
291 293 292 292 293 294 293 294 295 296 298 299 301 304 307 317 318 317 316 316 314 314 314 314 313 313 313 312 312 312 309 303 292 288 290 290 289 289 290 291 293 293 296
291 291 291 292 293 293 293 294 295 296 298 299 300 302 305 314 316 316 314 315 314 312 312 312 310 309 309 310 311 309 304 300 295 287 287 287 288 289 289 290 290 291 293
291 291 291 292 292 293 292 293 294 296 297 298 299 300 302 307 310 312 312 311 311 310 310 309 308 308 305 306 306 302 300 296 293 289 286 288 287 287 288 286 288 289 290
291 290 291 291 292 292 293 293 294 295 295 296 297 297 299 302 303 305 305 304 302 300 300 301 303 305 304 304 302 300 296 293 291 289 288 286 286 286 287 286 286 287 288
287 289 291 291 292 292 292 293 293 294 294 295 295 295 296 297 299 300 299 299 298 295 293 293 293 291 292 298 299 297 296 292 290 289 286 286 284 284 285 285 285 286 287
286 287 290 291 291 291 292 292 292 293 293 294 293 293 294 294 294 295 297 295 294 293 291 290 291 290 292 293 294 295 295 292 290 289 287 286 285 285 284 284 284 286 286
286 286 287 288 288 290 291 292 291 291 292 292 292 293 292 292 292 292 292 293 291 290 289 288 287 287 288 291 291 291 289 292 293 291 289 288 285 285 285 284 284 285 285
286 286 287 288 287 287 287 290 291 291 290 291 291 292 291 291 291 291 290 290 288 286 286 287 286 286 287 288 288 287 287 287 287 287 291 290 289 287 288 288 286 284 283
285 286 286 286 286 287 287 287 287 288 288 289 289 290 290 290 291 291 290 288 286 285 286 286 286 286 287 288 286 285 284 284 286 288 288 288 289 288 288 286 284 285 283
284 285 285 285 286 285 285 285 285 286 286 286 286 286 285 287 290 290 289 287 286 284 284 285 284 286 288 288 285 283 282 282 281 282 283 286 288 288 288 288 285 285 284
283 283 282 283 284 284 283 283 284 284 284 284 283 282 284 284 287 290 290 286 285 283 283 283 284 288 288 287 285 282 282 281 282 279 280 281 281 283 283 283 285 285 283
280 279 277 277 282 282 280 278 278 281 280 279 280 282 282 282 285 289 290 289 287 284 282 282 282 288 288 287 283 285 285 279 279 279 279 279 279 280 278 278 278 279 278
277 275 274 274 277 278 280 278 279 278 280 279 280 281 280 280 281 285 287 289 288 282 281 283 286 288 287 285 285 285 276 278 276 277 277 276 274 272 271 273 272 272 275
278 276 275 275 275 273 278 279 279 279 279 279 279 280 279 280 280 280 281 283 284 282 283 281 285 283 283 281 281 280 277 277 277 276 275 273 271 273 274 275 276 277 277
278 277 278 278 276 276 276 278 278 277 280 279 280 280 279 280 281 283 282 281 282 282 280 281 282 281 280 281 280 279 277 275 275 275 274 274 274 273 272 273 273 275 275
280 278 279 278 277 277 277 277 281 283 283 285 285 281 279 282 285 286 287 287 286 284 280 277 279 280 280 280 280 281 281 280 278 277 277 276 275 274 272 272 273 273 274
282 281 280 280 279 278 277 277 279 280 284 286 286 287 287 286 286 286 287 287 287 285 281 280 280 281 280 280 280 278 278 278 279 279 278 277 277 276 273 272 273 274 274
278 279 281 281 281 281 280 280 280 279 279 279 281 283 285 286 287 288 288 287 284 285 284 282 281 281 281 280 279 277 276 277 277 278 278 278 279 279 276 274 274 273 274
279 279 279 279 279 279 279 279 279 276 278 278 279 282 280 283 284 286 288 285 283 283 283 283 284 282 282 281 278 276 276 277 278 278 279 280 280 279 278 278 276 273 273
279 279 279 280 279 278 277 277 277 278 279 280 281 283 283 284 283 283 284 284 284 284 284 283 284 283 283 282 281 278 277 277 277 278 278 279 280 280 279 279 278 277 275
281 279 279 280 280 278 280 279 280 278 279 283 284 284 285 283 282 282 282 282 282 283 283 284 284 283 283 283 282 280 278 277 277 277 278 278 279 279 280 280 279 279 278
277 280 281 283 282 281 281 281 282 283 284 283 282 282 284 282 281 280 280 280 281 281 281 281 281 281 282 282 282 281 280 279 279 278 278 278 278 278 279 279 279 279 279
279 281 281 281 283 284 284 284 283 282 280 279 277 276 275 274 273 273 274 274 275 274 275 275 274 274 275 276 276 277 277 278 280 281 280 279 278 278 278 278 277 277 278
279 282 283 284 283 282 279 276 275 274 273 273 272 272 271 271 271 271 272 273 273 273 273 273 273 273 273 274 276 276 277 278 278 278 277 278 279 279 279 278 278 278 277
278 277 277 276 275 274 273 272 271 271 270 270 270 270 270 270 270 270 270 271 271 272 272 273 273 273 274 274 274 275 275 274 274 274 275 275 275 275 276 277 278 278 278
272 272 272 271 271 271 270 269 269 269 268 268 268 268 268 268 268 268 269 269 270 270 271 271 273 273 273 273 274 274 274 275 272 272 272 272 271 271 271 272 273 274 275
Wind_Speed
4 4 4 4 4 5 4 5 6 8 9 8 9 8 6 11 10 9 8 8 8 7 6 7 6 6 5 4 3 2 3 3 5 2 2 4 3 4 3 3 3 3 4
3 2 4 4 4 4 5 6 6 6 6 7 9 7 7 7 9 9 8 8 8 7 6 7 6 4 5 5 3 4 4 3 4 5 3 3 3 5 4 4 3 2 2
4 3 3 3 3 4 4 4 3 5 7 8 8 9 8 8 7 6 7 6 6 6 6 8 5 6 4 3 4 5 4 4 4 6 5 3 2 3 3 1 2 1 1
3 3 4 3 3 4 4 5 6 6 7 7 8 8 9 9 8 7 7 8 9 9 9 8 6 5 6 6 5 5 5 5 6 6 4 4 3 3 2 3 2 1 2
2 3 4 4 3 4 4 4 5 6 7 7 8 9 9 9 6 8 9 9 9 10 9 8 8 7 10 6 5 5 6 4 5 4 4 3 3 3 6 3 4 2 2
2 3 3 4 3 4 4 4 4 6 7 8 9 9 10 7 13 14 11 9 8 9 8 8 7 7 10 10 11 9 5 6 5 3 3 3 4 4 4 4 4 3 3
3 2 3 4 4 4 4 4 5 6 6 8 6 8 9 8 12 14 13 8 9 7 7 6 5 4 5 7 11 12 9 9 1 4 4 4 5 8 9 7 6 5 4
4 4 3 4 4 4 5 6 6 5 5 5 6 7 8 6 11 13 13 9 8 7 6 6 5 5 4 5 6 6 4 3 2 1 3 4 4 9 10 8 8 5 2
4 4 4 4 4 4 5 5 5 5 6 7 5 6 6 6 9 9 9 7 6 6 4 5 5 5 7 7 6 6 3 2 1 4 5 6 10 15 12 9 7 7 4
6 5 5 4 4 5 4 4 3 4 5 4 6 7 6 6 11 11 8 3 4 3 3 5 3 3 4 4 4 5 5 4 2 0 2 3 6 11 18 9 9 9 3
5 5 5 5 5 4 4 2 3 4 4 4 5 4 6 6 7 10 11 5 4 3 3 2 2 4 3 3 3 1 2 4 2 2 2 2 2 3 2 2 6 6 5
6 5 5 3 3 3 5 2 2 4 4 4 3 3 3 4 6 7 8 8 4 3 2 1 1 3 3 4 3 3 5 4 2 2 1 1 2 3 2 1 1 2 0
6 4 4 4 2 3 4 4 2 2 2 3 2 1 1 2 2 3 4 5 6 4 3 3 3 3 5 4 2 7 6 3 3 1 1 1 1 2 1 1 1 1 2
6 5 3 4 4 2 2 2 2 2 2 2 1 1 1 2 2 1 0 1 3 3 4 3 4 4 5 3 2 2 1 1 2 2 2 2 2 1 0 1 2 1 2
5 5 5 4 4 3 2 3 3 2 3 3 3 2 2 1 2 3 4 3 3 3 4 2 0 1 2 2 2 2 2 2 2 1 2 2 2 3 3 3 3 2 3
6 5 5 5 4 3 3 2 5 7 6 8 5 4 2 5 3 4 3 3 5 9 2 1 1 2 4 4 4 4 4 5 4 4 4 4 4 4 3 3 4 5 5
6 7 5 5 5 5 3 3 3 1 6 9 9 9 9 7 6 6 5 3 6 7 2 2 3 3 4 4 4 5 4 3 3 5 5 5 5 5 4 5 5 6 6
3 4 5 5 5 5 4 3 3 3 2 1 3 3 4 5 6 7 7 2 2 5 3 3 4 4 4 4 5 4 4 4 4 5 5 5 5 6 5 6 6 7 7
5 4 4 3 3 3 3 5 2 1 1 1 0 2 4 6 5 4 5 2 2 3 3 4 4 3 4 4 4 4 4 4 4 4 5 5 5 6 7 7 6 8 7
3 4 4 4 3 3 2 3 2 3 3 1 1 1 1 3 3 3 2 2 1 1 2 3 2 3 3 3 3 3 3 4 4 5 5 5 6 6 7 7 7 7 7
5 5 6 4 4 4 4 3 3 3 3 3 3 4 7 3 3 4 3 4 4 3 4 4 3 2 2 3 3 2 3 4 4 4 5 5 5 6 7 7 7 7 8
3 3 3 4 5 5 5 4 3 4 6 6 5 8 13 7 6 6 8 7 7 7 7 7 6 7 7 6 6 4 3 4 4 4 4 5 5 6 6 7 7 7 8
4 6 5 5 5 8 6 6 5 6 8 8 8 8 8 7 7 8 8 7 7 8 7 8 8 8 8 8 8 9 9 9 9 7 6 5 5 5 5 6 7 7 7
5 6 7 6 6 7 8 8 8 10 9 9 8 8 7 7 7 8 7 7 7 7 7 7 7 9 8 8 7 7 8 8 8 8 10 10 8 7 6 6 7 8 8
7 8 9 8 8 8 9 8 10 9 9 8 8 7 7 7 7 7 6 6 6 7 8 8 7 10 13 15 14 14 12 15 14 13 9 11 12 12 11 10 9 8 9
9 9 9 8 9 9 9 9 9 8 9 8 7 7 7 7 7 7 7 7 7 7 9 7 9 13 13 11 13 15 16 18 15 17 10 9 9 9 9 10 13 8 10
Wind_Direction
312 346 357 19 17 352 21 358 347 329 335 321 342 353 10 135 133 126 132 138 149 147 144 150 154 146 141 135 136 136 119 105 113 117 94 131 136 150 136 107 86 68 48
326 22 357 15 22 24 358 3 359 341 331 357 358 354 17 102 116 130 134 143 140 137 139 128 139 130 131 137 140 124 120 104 125 131 118 142 160 165 158 155 124 85 78
324 41 46 13 5 22 7 2 14 10 14 13 14 22 17 51 86 93 109 113 118 121 132 133 132 124 112 115 110 109 111 90 92 139 129 155 118 162 171 95 133 157 13
333 17 61 36 4 18 8 20 15 16 31 26 31 28 33 47 56 70 79 80 76 72 66 61 74 107 128 120 106 114 109 108 111 116 121 137 137 158 156 163 189 239 167
351 25 46 54 21 50 35 17 21 38 41 39 46 44 49 51 45 74 79 79 87 83 67 66 59 57 69 90 128 131 125 107 119 120 127 134 156 154 199 159 185 172 234
79 29 36 49 39 42 42 48 46 56 53 55 48 47 57 55 62 70 83 84 79 83 88 69 60 53 61 78 91 100 131 139 139 147 149 170 179 154 144 162 151 171 219
134 82 46 50 36 34 41 37 47 65 73 70 73 70 66 64 67 84 88 89 88 92 91 96 86 70 72 90 87 91 78 63 122 164 172 177 175 177 158 164 177 170 187
167 133 89 58 59 25 37 42 45 32 39 37 58 71 85 76 89 90 97 102 97 91 99 101 107 97 94 128 111 94 96 102 79 199 212 187 177 166 178 180 172 138 151
182 159 138 115 84 62 54 42 40 32 39 42 33 43 54 60 70 82 98 96 99 94 99 117 119 134 141 136 124 133 150 148 26 66 214 212 183 176 159 134 161 165 209
179 173 148 133 117 107 95 66 54 67 63 44 45 32 35 46 40 48 45 49 101 99 76 65 88 116 136 152 143 160 178 189 188 191 43 69 168 178 173 184 164 176 164
162 148 148 147 136 130 104 80 107 87 82 69 74 45 50 38 27 39 41 40 48 46 46 28 13 53 37 22 28 17 310 127 127 108 110 106 96 132 167 164 180 173 173
150 147 145 136 140 130 123 95 82 109 94 69 66 52 48 47 40 33 50 67 74 75 57 69 39 60 61 61 40 38 86 68 77 71 57 123 183 203 216 235 203 194 99
144 155 151 128 110 124 137 136 108 87 108 113 99 71 358 7 16 41 70 86 110 123 158 165 168 82 79 68 61 116 115 129 135 161 246 271 297 323 316 274 311 333 259
156 159 154 151 146 125 108 139 129 148 127 125 138 279 336 334 316 271 240 51 92 76 69 56 84 90 72 56 69 63 84 179 187 194 201 169 165 144 233 302 288 242 280
158 160 168 169 174 167 173 177 191 232 169 181 221 201 181 252 231 180 171 180 178 168 126 111 233 302 297 286 272 198 195 183 243 231 220 193 194 181 196 186 189 221 252
169 169 175 168 173 174 184 240 244 231 226 238 225 197 274 264 258 296 294 226 186 157 106 169 240 226 268 275 273 264 233 232 224 221 234 231 231 218 216 204 203 209 220
177 164 159 166 173 171 179 189 206 280 241 238 246 255 251 251 252 268 282 264 186 171 235 239 259 268 276 279 266 264 278 266 232 226 237 237 236 236 209 233 231 229 237
160 163 165 171 178 172 182 196 168 171 150 8 38 52 342 312 274 251 238 209 160 205 199 223 247 241 251 270 276 273 270 268 254 242 236 236 239 245 234 239 234 238 241
166 164 158 144 142 144 154 154 158 171 192 171 309 84 44 29 352 307 243 178 223 242 243 249 240 229 233 225 247 260 258 266 255 252 254 247 241 236 247 245 240 229 236
149 157 156 147 137 114 121 117 92 137 137 96 64 56 81 60 55 27 22 17 330 276 268 267 257 256 259 251 254 254 272 267 257 251 255 255 252 241 249 253 249 249 237
150 143 143 125 134 130 141 138 138 131 114 97 69 51 68 76 64 46 34 24 12 357 347 340 333 321 313 305 297 291 277 275 261 262 260 258 254 256 253 249 250 250 253
106 111 131 134 128 125 120 121 135 117 101 94 77 62 62 56 50 46 40 33 31 29 21 20 21 16 6 355 342 321 304 297 292 268 259 256 254 258 261 262 258 254 253
115 122 115 108 112 118 112 98 95 87 85 75 67 63 56 58 54 48 45 38 38 37 32 36 33 27 22 22 16 11 11 3 348 330 303 285 269 262 259 260 260 261 259
77 85 99 98 93 90 85 85 80 77 80 79 75 72 68 66 60 54 49 43 43 40 38 36 36 33 26 26 21 17 11 6 7 359 353 349 330 300 281 273 271 267 266
74 75 73 76 77 84 85 78 78 77 76 76 75 73 70 67 65 59 54 51 50 44 41 37 39 40 42 46 39 32 36 29 27 17 16 11 5 358 356 342 325 295 279
76 79 82 86 86 86 87 84 80 79 81 80 76 72 70 69 59 49 40 44 50 45 42 35 38 40 38 36 34 33 21 38 27 18 14 14 8 3 357 349 346 332 332